Home   Weather   Haldimand   Past weeks

Flag for Canada Past Weather in Haldimand, Ontario, Canada — Yesterday and Last 2 Weeks

Now
61 °F

Partly cloudy.


Feels Like: 61 °F
Forecast: 58 / 62 °F
Wind: 14 mph from East

Location: Hamilton Airport

Current Time: Sep 29, 2016 at 2:55:03 AM

Latest Report: Sep 29, 2016 at 2:00 AM


Visibility: 15 mi

Pressure: 30.14 "Hg

Humidity: 77%

Dew Point: 54 °F

Location of HaldimandLocation

Past Weather in Haldimand — Graph

°F

Haldimand Temperature Yesterday

Maximum temperature yesterday: 72 °F (at 1:00 PM)
Minimum temperature yesterday: 48 °F (at 6:00 AM)
Average temperature yesterday: 61 °F

High & Low Weather Summary for the Past Weeks

 TemperatureHumidityPressure
High84 °F (Sep 22, 3:00 PM)100% (Sep 16, 7:00 AM)30.36 "Hg (Sep 16, 7:00 AM)
Low45 °F (Sep 25, 3:00 AM)30% (Sep 21, 4:00 PM)29.75 "Hg (Sep 27, 3:00 PM)
Average63 °F74%30.09 "Hg
* Reported Sep 14 1:00 AM — Sep 29 1:00 AM, Haldimand, Weather by CustomWeather, © 2016

Note: Actual official high and low records may vary slightly from our data, if they occured in-between our weather recording intervals... More about our weather records

Advertising

Haldimand Weather History for the Previous 24 Hours

Scroll right to see more
 ConditionsComfort  
Time TempWeatherWind HumidityBarometerVisibility
1:00 AM
Thu, Sep 29
63 °FPassing clouds.13 mph73%30.14 "Hg15 mi
12:00 AM63 °FPassing clouds.15 mph77%30.12 "Hg15 mi
11:00 PM
Wed, Sep 28
63 °FPassing clouds.13 mph77%30.12 "Hg15 mi
10:00 PM63 °FPassing clouds.16 mph88%30.11 "Hg15 mi
9:00 PM64 °FPassing clouds.18 mph83%30.09 "Hg15 mi
8:00 PM63 °FPassing clouds.15 mph83%30.08 "Hg15 mi
7:00 PM63 °FSprinkles. Partly sunny.15 mph83%30.07 "Hg15 mi
6:00 PM64 °FScattered showers. Broken clouds.17 mph83%30.04 "Hg15 mi
5:00 PM70 °FScattered showers. Broken clouds.20 mph64%30.01 "Hg15 mi
4:00 PM68 °FBroken clouds.13 mph69%30.03 "Hg15 mi
3:00 PM66 °FPartly sunny.12 mph73%30.02 "Hg15 mi
2:00 PM61 °FLight rain. Cloudy.14 mph72%30.03 "Hg15 mi
1:00 PM72 °FBroken clouds.12 mph47%30.01 "Hg15 mi
12:00 PM70 °FPartly sunny.7 mph57%30.01 "Hg15 mi
11:00 AM66 °FPartly sunny.12 mph64%30.00 "Hg15 mi
10:00 AM63 °FPartly sunny.8 mph73%29.98 "Hg15 mi
9:00 AM61 °FBroken clouds.8 mph72%29.96 "Hg15 mi
8:00 AM57 °FBroken clouds.9 mph82%29.95 "Hg15 mi
7:00 AM54 °FPartly cloudy.6 mph88%29.93 "Hg15 mi
6:00 AM48 °FPartly cloudy.8 mph94%29.92 "Hg15 mi
5:00 AM52 °FPassing clouds.5 mph88%29.89 "Hg15 mi
4:00 AM55 °FPassing clouds.3 mph77%29.89 "Hg15 mi
3:00 AM55 °FOvercast.5 mph72%29.88 "Hg15 mi
2:00 AM55 °FOvercast.7 mph72%29.88 "Hg15 mi
Weather by CustomWeather, © 2016

See weather overviewHow to use our weather pages